STARLINK AH

Last updated on Sat Jul 15 2023 00:02:05 GMT+0000 (Coordinated Universal Time)

1 57249U 23094AH 23195.75001157 -.01069625 34099-3 -30547-2 0 9991 2 57249 42.9953 276.0480 0024676 199.6549 242.3775 15.91775684 1303

Satellite not in orbit